Location: *
(33.3200°N, 8.3381°W)
Time: 00:22:21
(UTC+00:00)

Cosmos 1300 - Pass Details

Date: 09 April 2020
Orbit: 511 x 515 km, 82.5° (Epoch: 06 June)

Event Time Altitude Azimuth Distance (km) Brightness Sun altitude
Exits shadow 20:17:26 35° 105° (ESE) 848 3.2 -16.4°
Maximum altitude 20:17:46 35° 92° (E) 835 3.2 -16.5°
Drops below altitude 10° 20:21:17 10° 25° (NNE) 1,742 5.3 -17.1°
Sets 20:23:32 0° 17° (NNE) 2,634 6.4 -17.6°
